{"data":{"norad_id":60018,"epoch":"2026-09-21T15:19:58.529568Z","epoch_age_seconds":79144,"freshness":"FRESH","line1":"1 60018U 24111C   26264.63887187 -.00000419  00000+0 -12783-5 0  9993","line2":"2 60018  53.1571 244.0832 0001217  83.8739 276.2403 15.34390179128907","mean_motion":15.34390179,"eccentricity":0.0001217,"inclination_deg":53.1571,"raan_deg":244.0832,"arg_perigee_deg":83.8739,"mean_anomaly_deg":276.2403,"bstar":-1.2783e-6,"rev_number":12890,"period_min":93.848358762208,"perigee_km":461.8998966348,"apogee_km":463.56496425417,"semimajor_km":6840.8694304445,"source":"CELESTRAK","updated_at":"2026-09-22T09:00:49.137592Z"}}